FW1786 Weather Reports


Display with metric or nautical units.
time (UTC)temp
F
wind
direction
speed
MPH
gust
MPH
rain 1hr
in
rain 24hr
in
rain mn
in
humidity
%
barometer
mb
20260510063019 58 188 0.0 1.0 0.00 0.00 0.00 80 1013.7
20260510061508 57 189 0.0 1.0 0.00 0.00 0.00 81 1013.7
20260510060010 57 188 0.0 1.0 0.00 0.00 0.00 83 1013.9
20260510054514 57 182 0.0 1.0 0.00 0.00 0.00 83 1013.9
20260510053044 57 182 0.0 2.0 0.00 0.00 0.00 82 1013.9
20260510051516 57 186 0.0 2.0 0.00 0.00 0.00 81 1013.9
20260510050015 58 184 1.0 3.0 0.00 0.00 0.00 80 1013.8
20260510044510 58 197 1.0 3.0 0.00 0.00 0.00 81 1013.6
20260510043033 58 199 1.0 5.0 0.00 0.00 0.00 81 1013.5
20260510041526 58 188 0.0 2.0 0.00 0.00 0.00 83 1013.6
20260510040033 58 190 0.0 3.0 0.00 0.00 0.00 82 1013.3
20260510034520 59 192 1.0 2.0 0.00 0.00 0.00 82 1013.1
20260510033018 59 193 0.0 2.0 0.00 0.00 0.00 81 1012.9
20260510031518 60 210 0.0 1.0 0.00 0.00 0.00 80 1012.7
20260510030023 61 202 0.0 2.0 0.00 0.00 0.00 79 1012.5
20260510024527 61 190 0.0 1.0 0.00 0.00 0.00 79 1012.3
20260510023016 62 204 0.0 1.0 0.00 0.00 0.00 77 1012.0
20260510021527 63 204 0.0 1.0 0.00 0.00 0.00 75 1011.6
20260510020018 64 204 0.0 1.0 0.00 0.00 0.00 74 1011.5
20260510014514 64 294 0.0 1.0 0.00 0.01 0.00 75 1011.1
20260510013022 65 281 0.0 1.0 0.00 0.02 0.00 73 1010.7
20260510011517 67 281 0.0 1.0 0.00 0.03 0.00 74 1010.5
20260510010019 68 233 0.0 1.0 0.00 0.04 0.00 72 1010.4
20260510004525 71 213 0.0 0.0 0.00 0.04 0.00 64 1010.4
20260510003021 73 213 0.0 1.0 0.00 0.04 0.00 63 1010.1
20260510001516 76 210 0.0 2.0 0.00 0.04 0.00 46 1010.2
20260510000023 77 229 0.0 1.0 0.00 0.04 0.00 47 1010.1
20260509234522 78 248 0.0 2.0 0.00 0.04 0.00 42 1010.1
20260509233022 79 178 0.0 3.0 0.00 0.04 0.00 37 1010.2
20260509231526 80 169 0.0 3.0 0.00 0.04 0.00 37 1010.4
20260509230018 80 300 1.0 2.0 0.00 0.04 0.00 39 1010.4
20260509224520 80 14 0.0 2.0 0.00 0.04 0.00 40 1010.3
20260509223018 80 221 1.0 3.0 0.00 0.04 0.00 33 1010.2
20260509221514 81 296 1.0 3.0 0.00 0.04 0.00 38 1010.1
20260509220018 81 213 0.0 2.0 0.00 0.04 0.00 39 1010.2
20260509214523 80 327 1.0 4.0 0.00 0.04 0.00 43 1010.3
20260509213031 77 160 0.0 2.0 0.00 0.04 0.00 40 1010.4
20260509211524 80 88 1.0 3.0 0.00 0.04 0.00 38 1010.4
20260509210013 80 86 1.0 7.0 0.00 0.04 0.00 36 1010.6
20260509204514 81 242 1.0 4.0 0.00 0.04 0.00 32 1010.8
20260509203017 82 352 1.0 4.0 0.00 0.04 0.00 37 1010.8
20260509201517 81 96 0.0 5.0 0.00 0.04 0.00 32 1011.0
20260509200014 81 55 1.0 4.0 0.00 0.04 0.00 32 1011.1
20260509194518 81 35 1.0 4.0 0.00 0.04 0.00 36 1011.1
20260509193026 81 321 1.0 4.0 0.00 0.04 0.00 37 1011.3
20260509191532 80 176 1.0 3.0 0.00 0.04 0.00 34 1011.3
20260509190023 80 342 2.0 5.0 0.00 0.04 0.00 39 1011.4
20260509184532 80 183 1.0 4.0 0.00 0.04 0.00 37 1011.4
20260509183029 80 130 1.0 5.0 0.00 0.04 0.00 38 1011.4
20260509181523 80 93 0.0 4.0 0.00 0.04 0.00 45 1011.6
20260509180022 80 254 5.0 10.0 0.00 0.04 0.00 41 1011.4
20260509174524 79 345 1.0 5.0 0.00 0.04 0.00 37 1011.4
20260509173021 78 315 1.0 3.0 0.00 0.04 0.00 39 1011.6
20260509171515 77 14 0.0 3.0 0.00 0.04 0.00 46 1011.7
20260509170025 76 262 0.0 4.0 0.00 0.04 0.00 53 1011.8
20260509164525 76 217 1.0 5.0 0.00 0.04 0.00 58 1012.2
20260509163026 75 198 2.0 5.0 0.00 0.04 0.00 55 1012.2
20260509161523 74 158 1.0 4.0 0.00 0.04 0.00 62 1012.2
20260509160025 72 317 1.0 3.0 0.00 0.04 0.00 62 1012.2
20260509154524 71 304 0.0 5.0 0.00 0.04 0.00 69 1012.2
20260509153039 70 313 0.0 4.0 0.00 0.04 0.00 70 1012.1
20260509151523 68 5 0.0 6.0 0.00 0.04 0.00 74 1012.0
20260509150026 67 211 3.0 6.0 0.00 0.04 0.00 76 1012.0
20260509144530 65 166 1.0 4.0 0.00 0.04 0.00 81 1012.1
20260509143029 63 162 1.0 4.0 0.00 0.04 0.00 85 1012.0
20260509141524 62 205 0.0 4.0 0.00 0.04 0.00 85 1011.9
20260509140008 60 185 0.0 4.0 0.00 0.04 0.00 89 1012.0
20260509134508 57 188 0.0 2.0 0.00 0.04 0.00 93 1011.8
20260509133014 55 169 0.0 0.0 0.00 0.04 0.00 94 1011.7
20260509131511 54 169 0.0 1.0 0.00 0.04 0.00 94 1011.7
20260509130009 53 191 0.0 1.0 0.00 0.04 0.00 94 1011.6
20260509124503 52 195 0.0 1.0 0.00 0.04 0.00 94 1011.6
20260509123004 51 196 0.0 2.0 0.00 0.04 0.00 95 1011.5
20260509121510 50 184 0.0 1.0 0.00 0.04 0.00 94 1011.4
20260509120005 49 188 0.0 1.0 0.00 0.04 0.00 94 1011.3
20260509114505 49 190 0.0 0.0 0.00 0.04 0.00 94 1011.3
20260509113004 49 190 0.0 1.0 0.00 0.04 0.00 94 1011.0
20260509111508 49 190 0.0 1.0 0.00 0.04 0.00 94 1010.8
20260509110007 50 190 0.0 1.0 0.00 0.04 0.00 93 1010.6
20260509104510 51 190 0.0 2.0 0.00 0.04 0.00 93 1010.5
20260509103010 51 179 0.0 1.0 0.00 0.04 0.00 93 1010.3
20260509101519 51 179 0.0 1.0 0.00 0.04 0.00 93 1010.4
20260509100015 52 181 0.0 2.0 0.00 0.04 0.00 93 1010.6
20260509094511 52 166 0.0 1.0 0.00 0.04 0.00 93 1010.7
20260509093007 51 184 0.0 2.0 0.00 0.04 0.00 93 1010.9
20260509091514 52 176 0.0 1.0 0.00 0.04 0.00 92 1010.9
20260509090031 52 180 0.0 2.0 0.00 0.04 0.00 92 1011.0
20260509084520 52 187 0.0 1.0 0.00 0.04 0.00 91 1011.2
20260509083032 52 187 0.0 2.0 0.00 0.04 0.00 92 1011.3
20260509081512 53 149 0.0 1.0 0.00 0.04 0.00 91 1011.1
20260509080012 53 188 0.0 2.0 0.00 0.04 0.00 91 1011.1
20260509074520 53 182 0.0 3.0 0.00 0.04 0.00 90 1011.2
20260509073030 53 163 1.0 2.0 0.00 0.04 0.00 91 1011.0
20260509071530 53 177 0.0 1.0 0.00 0.04 0.00 90 1010.8
20260509070016 54 178 0.0 2.0 0.00 0.04 0.00 89 1011.0
20260509064518 54 187 0.0 2.0 0.00 0.04 0.00 89 1011.0